Location: Daytona Beach
(29.2106°N, 81.0231°W)
Time: 16:21:57
(UTC-04:00)

RS-15 - Pass Details

Date: 25 September 2021
Orbit: 1884 x 2160 km, 64.8° (Epoch: 26 October)

Event Time Altitude Azimuth Distance (km) Brightness Sun altitude
Rises 01:43:21 0° 334° (NNW) 5,646 10.8 -61.0°
Reaches altitude 10° 01:46:50 10° 337° (NNW) 4,659 10.2 -60.8°
Enters shadow 01:51:07 26° 343° (NNW) 3,506 9.4 -60.5°
